Regional Weather Roundup
Issued by NWS Charleston, WV

Home | Current Version | Previous Version | Graphics & Text | Print | Product List | Glossary On
Versions: 1 2 3 4 5 6 7 8 9 10 11 12 13 14 15 16 17 18 19 20 21 22 23 24 25 26 27 28 29 30 31 32 33 34 35 36 37 38 39 40 41 42 43 44 45 46 47 48 49 50
926
ASUS41 KRLX 261910
RWRRLX
West Virginia Regional Weather Roundup
National Weather Service Charleston WV
300 PM EDT WED APR 26 2017

Note: "fair" indicates few or no clouds below 12,000 feet with no
significant weather and/or obstructions to visibility.

WVZ003-262000-
Northern Panhandle of West Virginia

CITY           SKY/WX    TMP DP  RH WIND       PRES   REMARKS
WHEELING       CLOUDY    76  55  48 W5        29.73F
$$

WVZ009-262000-
Northwest West Virginia

CITY           SKY/WX    TMP DP  RH WIND       PRES   REMARKS
PARKERSBURG    SUNNY     81  56  42 S7        29.74F
$$

WVZ006-262000-
Western West Virginia

CITY           SKY/WX    TMP DP  RH WIND       PRES   REMARKS
HUNTINGTON     CLOUDY    81  55  40 S8        29.70F
$$

WVZ015-262000-
West Central West Virginia

CITY           SKY/WX    TMP DP  RH WIND       PRES   REMARKS
CHARLESTON     SUNNY     81  55  40 NE3       29.73F
$$

WVZ022-031-262000-
North Central West Virginia

CITY           SKY/WX    TMP DP  RH WIND       PRES   REMARKS
CLARKSBURG     CLOUDY    76  56  49 E5        29.75F
MORGANTOWN     SUNNY     76  55  48 VRB3      29.76F
$$

WVZ025-035-042-045-262000-
Southern West Virginia

CITY           SKY/WX    TMP DP  RH WIND       PRES   REMARKS
BECKLEY        SUNNY     75  52  44 SE8       29.82F
LOGAN          NOT AVBL
BLUEFIELD      SUNNY     74  50  42 VRB6      29.85S
LEWISBURG      SUNNY     75  56  52 SW5       29.82S
$$

WVZ047-262000-
Northern Mountains of West Virginia

CITY           SKY/WX    TMP DP  RH WIND       PRES   REMARKS
ELKINS         SUNNY     76  53  44 N3        29.79F
$$

WVZ052-262000-
Eastern Panhandle of West Virginia

CITY           SKY/WX    TMP DP  RH WIND       PRES   REMARKS
MARTINSBURG    CLOUDY    70  57  63 NW5       29.77S
PETERSBURG     SUNNY     78  60  55 CALM      29.75F
$$




USA.gov is the U.S. government's official web portal to all federal, state and local government web resources and services.